Location: Mahannah Oil Field
(37.4664°N, 96.6003°W)
Time: 13:49:57
(UTC+00:00)

A-11 Canister half - Pass Details

Date: 24 January 2021
Orbit: 1525 x 1684 km, 47.3° (Epoch: 05 March)

Event Time Altitude Azimuth Distance (km) Brightness Sun altitude
Rises 05:00:18 0° 297° (WNW) 4,816 12.0 -61.8°
Reaches altitude 10° 05:03:51 10° 287° (WNW) 3,851 11.3 -62.4°
Enters shadow 05:04:39 13° 284° (WNW) 3,651 11.2 -62.5°
